| time (UTC) | temp C | wind direction | speed KPH | gust KPH | rain 1hr cm | rain 24hr cm | rain mn cm | humidity % | barometer mb |
| 20260505000431 | 15 | 350 | 1.6 | 3.2 | 0.00 | 0.00 | 0.00 | 76 | 1021.3 |
| 20260504235928 | 15 | 302 | 0.0 | 3.2 | 0.00 | 0.00 | 0.00 | 76 | 1021.2 |
| 20260504235425 | 14 | 309 | 0.0 | 1.6 | 0.00 | 0.00 | 0.00 | 77 | 1021.2 |
| 20260504234921 | 14 | 94 | 1.6 | 4.8 | 0.00 | 0.00 | 0.00 | 79 | 1021.1 |
| 20260504234419 | 15 | 172 | 4.8 | 4.8 | 0.00 | 0.00 | 0.00 | 79 | 1021.1 |
| 20260504233915 | 14 | 140 | 3.2 | 3.2 | 0.00 | 0.00 | 0.00 | 80 | 1021.0 |
| 20260504233411 | 13 | 277 | 1.6 | 4.8 | 0.00 | 0.00 | 0.00 | 81 | 1021.0 |
| 20260504232908 | 14 | 161 | 3.2 | 8.0 | 0.00 | 0.00 | 0.00 | 82 | 1020.9 |
| 20260504232405 | 13 | 64 | 4.8 | 8.0 | 0.00 | 0.00 | 0.00 | 83 | 1020.9 |
| 20260504231902 | 13 | 83 | 6.4 | 8.0 | 0.00 | 0.00 | 0.00 | 84 | 1020.7 |
| 20260504231358 | 13 | 86 | 4.8 | 9.7 | 0.00 | 0.00 | 0.00 | 85 | 1020.9 |
| 20260504230854 | 13 | 85 | 3.2 | 9.7 | 0.00 | 0.00 | 0.00 | 85 | 1020.9 |
| 20260504230352 | 13 | 133 | 4.8 | 8.0 | 0.00 | 0.00 | 0.00 | 85 | 1020.7 |
| 20260504225851 | 13 | 82 | 6.4 | 9.7 | 0.00 | 0.00 | 0.00 | 85 | 1020.7 |
| 20260504225347 | 13 | 107 | 6.4 | 8.0 | 0.00 | 0.00 | 0.00 | 85 | 1020.8 |
| 20260504224845 | 13 | 120 | 8.0 | 9.7 | 0.00 | 0.00 | 0.00 | 85 | 1020.8 |
| 20260504224341 | 13 | 110 | 6.4 | 9.7 | 0.00 | 0.00 | 0.00 | 86 | 1020.9 |
| 20260504223838 | 13 | 130 | 6.4 | 9.7 | 0.00 | 0.00 | 0.00 | 86 | 1020.7 |
| 20260504223333 | 13 | 124 | 6.4 | 9.7 | 0.00 | 0.00 | 0.00 | 86 | 1020.6 |
| 20260504222830 | 13 | 134 | 6.4 | 9.7 | 0.00 | 0.00 | 0.00 | 87 | 1020.7 |
| 20260504222327 | 13 | 80 | 6.4 | 9.7 | 0.00 | 0.00 | 0.00 | 87 | 1020.5 |
| 20260504221826 | 13 | 97 | 8.0 | 9.7 | 0.00 | 0.00 | 0.00 | 87 | 1020.5 |
| 20260504221322 | 13 | 80 | 8.0 | 9.7 | 0.00 | 0.00 | 0.00 | 87 | 1020.4 |
| 20260504220819 | 13 | 96 | 8.0 | 11.3 | 0.00 | 0.00 | 0.00 | 87 | 1020.3 |
| 20260504220316 | 13 | 128 | 6.4 | 8.0 | 0.00 | 0.00 | 0.00 | 87 | 1020.3 |
| 20260504215813 | 12 | 133 | 6.4 | 9.7 | 0.00 | 0.00 | 0.00 | 88 | 1020.3 |
| 20260504215309 | 12 | 111 | 6.4 | 9.7 | 0.00 | 0.00 | 0.00 | 88 | 1020.3 |
| 20260504214805 | 13 | 100 | 6.4 | 9.7 | 0.00 | 0.00 | 0.00 | 88 | 1020.2 |
| 20260504214302 | 12 | 98 | 4.8 | 4.8 | 0.00 | 0.00 | 0.00 | 88 | 1020.2 |
| 20260504213759 | 12 | 88 | 4.8 | 8.0 | 0.00 | 0.00 | 0.00 | 88 | 1020.0 |
| 20260504213255 | 12 | 83 | 8.0 | 9.7 | 0.00 | 0.00 | 0.00 | 89 | 1020.1 |
| 20260504212752 | 12 | 87 | 3.2 | 8.0 | 0.00 | 0.00 | 0.00 | 89 | 1019.8 |
| 20260504212248 | 12 | 127 | 6.4 | 9.7 | 0.00 | 0.00 | 0.00 | 89 | 1019.8 |
| 20260504211746 | 12 | 112 | 6.4 | 9.7 | 0.00 | 0.00 | 0.00 | 89 | 1019.9 |
| 20260504211242 | 12 | 145 | 8.0 | 11.3 | 0.00 | 0.00 | 0.00 | 89 | 1019.8 |
| 20260504210740 | 13 | 145 | 8.0 | 12.9 | 0.00 | 0.00 | 0.00 | 89 | 1019.9 |
| 20260504210237 | 12 | 109 | 4.8 | 11.3 | 0.00 | 0.00 | 0.00 | 89 | 1019.5 |
| 20260504205734 | 12 | 136 | 8.0 | 11.3 | 0.00 | 0.00 | 0.00 | 89 | 1019.6 |
| 20260504205232 | 12 | 152 | 11.3 | 12.9 | 0.00 | 0.00 | 0.00 | 89 | 1019.5 |
| 20260504204730 | 12 | 162 | 6.4 | 11.3 | 0.00 | 0.00 | 0.00 | 89 | 1019.5 |
| 20260504204228 | 12 | 149 | 4.8 | 8.0 | 0.00 | 0.00 | 0.00 | 89 | 1019.8 |
| 20260504203727 | 12 | 188 | 4.8 | 9.7 | 0.00 | 0.00 | 0.00 | 89 | 1019.8 |
| 20260504203223 | 12 | 198 | 4.8 | 14.5 | 0.00 | 0.00 | 0.00 | 89 | 1019.4 |
| 20260504202718 | 12 | 206 | 4.8 | 11.3 | 0.00 | 0.00 | 0.00 | 89 | 1019.2 |
| 20260504202215 | 13 | 155 | 6.4 | 8.0 | 0.00 | 0.00 | 0.00 | 89 | 1019.6 |
| 20260504201712 | 13 | 185 | 6.4 | 12.9 | 0.00 | 0.00 | 0.00 | 89 | 1019.5 |
| 20260504201209 | 13 | 198 | 3.2 | 11.3 | 0.00 | 0.00 | 0.00 | 89 | 1019.2 |
| 20260504200707 | 13 | 142 | 6.4 | 9.7 | 0.00 | 0.00 | 0.00 | 89 | 1019.4 |
| 20260504200203 | 13 | 150 | 4.8 | 11.3 | 0.00 | 0.00 | 0.00 | 89 | 1018.9 |
| 20260504195659 | 13 | 128 | 6.4 | 11.3 | 0.00 | 0.00 | 0.00 | 89 | 1019.2 |
| 20260504195155 | 13 | 121 | 9.7 | 11.3 | 0.00 | 0.00 | 0.00 | 89 | 1019.0 |
| 20260504194653 | 13 | 139 | 6.4 | 11.3 | 0.00 | 0.00 | 0.00 | 89 | 1019.0 |
| 20260504194148 | 13 | 155 | 9.7 | 11.3 | 0.00 | 0.00 | 0.00 | 89 | 1018.9 |
| 20260504193645 | 13 | 147 | 8.0 | 12.9 | 0.00 | 0.00 | 0.00 | 88 | 1019.0 |
| 20260504193143 | 13 | 149 | 8.0 | 11.3 | 0.00 | 0.00 | 0.00 | 88 | 1019.0 |
| 20260504192641 | 13 | 172 | 4.8 | 8.0 | 0.00 | 0.00 | 0.00 | 88 | 1018.8 |
| 20260504192139 | 13 | 212 | 3.2 | 4.8 | 0.00 | 0.00 | 0.00 | 88 | 1019.2 |
| 20260504191637 | 13 | 132 | 9.7 | 11.3 | 0.00 | 0.00 | 0.00 | 88 | 1018.8 |
| 20260504191133 | 13 | 140 | 4.8 | 9.7 | 0.00 | 0.00 | 0.00 | 88 | 1018.7 |
| 20260504190629 | 13 | 172 | 4.8 | 8.0 | 0.00 | 0.00 | 0.00 | 88 | 1018.9 |
| 20260504190126 | 13 | 148 | 6.4 | 9.7 | 0.00 | 0.00 | 0.00 | 88 | 1018.7 |
| 20260504185622 | 13 | 86 | 4.8 | 9.7 | 0.00 | 0.00 | 0.00 | 88 | 1018.6 |
| 20260504185119 | 13 | 135 | 4.8 | 8.0 | 0.00 | 0.00 | 0.00 | 88 | 1018.6 |
| 20260504184615 | 13 | 191 | 4.8 | 8.0 | 0.00 | 0.00 | 0.00 | 88 | 1018.5 |
| 20260504184110 | 13 | 166 | 3.2 | 4.8 | 0.00 | 0.00 | 0.00 | 88 | 1018.5 |
| 20260504183607 | 13 | 80 | 3.2 | 4.8 | 0.00 | 0.00 | 0.00 | 87 | 1018.5 |
| 20260504183105 | 13 | 208 | 4.8 | 4.8 | 0.00 | 0.00 | 0.00 | 87 | 1018.6 |
| 20260504182602 | 13 | 192 | 4.8 | 9.7 | 0.00 | 0.00 | 0.00 | 86 | 1018.3 |
| 20260504182100 | 13 | 218 | 6.4 | 14.5 | 0.00 | 0.00 | 0.00 | 87 | 1018.5 |
| 20260504181556 | 13 | 219 | 11.3 | 16.1 | 0.00 | 0.00 | 0.00 | 87 | 1018.3 |
| 20260504181054 | 13 | 225 | 8.0 | 9.7 | 0.00 | 0.00 | 0.00 | 88 | 1018.6 |
| 20260504180553 | 13 | 185 | 9.7 | 16.1 | 0.00 | 0.00 | 0.00 | 88 | 1018.4 |
| 20260504180052 | 13 | 187 | 4.8 | 9.7 | 0.00 | 0.00 | 0.00 | 88 | 1018.5 |
| 20260504175548 | 13 | 197 | 6.4 | 9.7 | 0.00 | 0.00 | 0.00 | 87 | 1018.5 |
| 20260504175045 | 13 | 193 | 8.0 | 12.9 | 0.00 | 0.00 | 0.00 | 87 | 1018.6 |
| 20260504174543 | 14 | 189 | 6.4 | 12.9 | 0.00 | 0.00 | 0.00 | 86 | 1018.3 |
| 20260504174040 | 14 | 225 | 14.5 | 17.7 | 0.00 | 0.00 | 0.00 | 86 | 1018.6 |
| 20260504173537 | 14 | 235 | 14.5 | 17.7 | 0.00 | 0.00 | 0.00 | 87 | 1018.6 |
| 20260504173034 | 13 | 240 | 11.3 | 12.9 | 0.00 | 0.00 | 0.00 | 87 | 1018.4 |
| 20260504172530 | 13 | 249 | 9.7 | 16.1 | 0.00 | 0.00 | 0.00 | 87 | 1018.6 |
| 20260504172027 | 13 | 218 | 17.7 | 20.9 | 0.00 | 0.00 | 0.00 | 88 | 1018.7 |
| 20260504171524 | 13 | 177 | 11.3 | 16.1 | 0.00 | 0.00 | 0.00 | 88 | 1018.7 |
| 20260504171021 | 13 | 248 | 3.2 | 8.0 | 0.00 | 0.00 | 0.00 | 88 | 1018.9 |
| 20260504170516 | 13 | 134 | 4.8 | 8.0 | 0.00 | 0.00 | 0.00 | 88 | 1018.8 |
| 20260504160437 | 14 | 156 | 6.4 | 8.0 | 0.00 | 0.00 | 0.00 | 84 | 1018.5 |
| 20260504150900 | 15 | 218 | 9.7 | 14.5 | 0.00 | 0.00 | 0.00 | 78 | 1018.5 |
| 20260504150358 | 15 | 223 | 11.3 | 16.1 | 0.00 | 0.00 | 0.00 | 79 | 1018.6 |
| 20260504141327 | 15 | 228 | 9.7 | 14.5 | 0.00 | 0.00 | 0.00 | 76 | 1018.3 |
| 20260504140824 | 15 | 234 | 14.5 | 22.5 | 0.00 | 0.00 | 0.00 | 76 | 1018.1 |
| 20260504140319 | 15 | 229 | 11.3 | 14.5 | 0.00 | 0.00 | 0.00 | 76 | 1018.1 |
| 20260504130748 | 15 | 239 | 12.9 | 16.1 | 0.00 | 0.00 | 0.00 | 75 | 1017.9 |
| 20260504130244 | 15 | 210 | 8.0 | 12.9 | 0.00 | 0.00 | 0.00 | 75 | 1018.2 |
| 20260504120208 | 15 | 233 | 16.1 | 22.5 | 0.00 | 0.00 | 0.00 | 72 | 1017.9 |
| 20260504110636 | 16 | 216 | 14.5 | 16.1 | 0.00 | 0.00 | 0.00 | 75 | 1017.0 |
| 20260504110131 | 16 | 219 | 17.7 | 17.7 | 0.00 | 0.00 | 0.00 | 75 | 1017.2 |
| 20260504100557 | 15 | 223 | 11.3 | 14.5 | 0.00 | 0.00 | 0.00 | 78 | 1016.3 |
| 20260504081951 | 15 | 190 | 11.3 | 14.5 | 0.00 | 0.00 | 0.00 | 81 | 1014.9 |
| 20260504081448 | 15 | 206 | 14.5 | 22.5 | 0.00 | 0.00 | 0.00 | 80 | 1015.0 |
| 20260504080943 | 16 | 222 | 17.7 | 25.7 | 0.00 | 0.00 | 0.00 | 78 | 1014.9 |
| 20260504080441 | 16 | 209 | 25.7 | 35.4 | 0.00 | 0.00 | 0.00 | 77 | 1014.8 |
| 20260504070408 | 17 | 261 | 24.1 | 29.0 | 0.00 | 0.00 | 0.00 | 74 | 1013.9 |
| 20260504050253 | 17 | 257 | 20.9 | 25.7 | 0.00 | 0.00 | 0.00 | 73 | 1012.9 |
| 20260504045751 | 17 | 254 | 25.7 | 32.2 | 0.00 | 0.00 | 0.00 | 72 | 1012.7 |
| 20260504045245 | 17 | 243 | 20.9 | 29.0 | 0.00 | 0.00 | 0.00 | 71 | 1012.8 |
| 20260504044743 | 17 | 243 | 19.3 | 27.4 | 0.00 | 0.00 | 0.00 | 71 | 1012.5 |
| 20260504044240 | 17 | 265 | 19.3 | 25.7 | 0.00 | 0.00 | 0.00 | 69 | 1012.6 |
| 20260504043737 | 17 | 247 | 24.1 | 29.0 | 0.00 | 0.00 | 0.00 | 68 | 1012.5 |
| 20260504043234 | 17 | 233 | 16.1 | 27.4 | 0.00 | 0.00 | 0.00 | 70 | 1012.7 |
| 20260504042732 | 17 | 265 | 16.1 | 24.1 | 0.00 | 0.00 | 0.00 | 72 | 1012.6 |
| 20260504042228 | 17 | 271 | 16.1 | 24.1 | 0.00 | 0.00 | 0.00 | 73 | 1012.5 |
| 20260504041724 | 17 | 264 | 19.3 | 24.1 | 0.00 | 0.00 | 0.00 | 73 | 1012.6 |
| 20260504041220 | 17 | 252 | 22.5 | 27.4 | 0.00 | 0.00 | 0.00 | 73 | 1012.5 |
| 20260504040716 | 17 | 264 | 22.5 | 25.7 | 0.00 | 0.00 | 0.00 | 73 | 1012.5 |
| 20260504040214 | 17 | 273 | 17.7 | 25.7 | 0.00 | 0.00 | 0.00 | 73 | 1012.4 |
| 20260504035710 | 17 | 262 | 17.7 | 24.1 | 0.00 | 0.00 | 0.00 | 73 | 1012.5 |
| 20260504035208 | 17 | 258 | 20.9 | 25.7 | 0.00 | 0.00 | 0.00 | 73 | 1012.4 |
| 20260504034705 | 17 | 250 | 20.9 | 25.7 | 0.00 | 0.00 | 0.00 | 73 | 1012.4 |
| 20260504034202 | 17 | 264 | 19.3 | 22.5 | 0.00 | 0.00 | 0.00 | 74 | 1012.6 |
| 20260504033659 | 17 | 262 | 17.7 | 25.7 | 0.00 | 0.00 | 0.00 | 74 | 1012.5 |
| 20260504033156 | 17 | 262 | 19.3 | 24.1 | 0.00 | 0.00 | 0.00 | 74 | 1012.5 |
| 20260504032653 | 17 | 268 | 19.3 | 25.7 | 0.00 | 0.00 | 0.00 | 73 | 1012.4 |
| 20260504032150 | 17 | 262 | 22.5 | 27.4 | 0.00 | 0.00 | 0.00 | 73 | 1012.7 |
| 20260504031642 | 17 | 236 | 22.5 | 27.4 | 0.00 | 0.00 | 0.00 | 73 | 1012.8 |
| 20260504031138 | 17 | 252 | 20.9 | 27.4 | 0.00 | 0.00 | 0.00 | 72 | 1012.6 |
| 20260504030635 | 17 | 237 | 24.1 | 29.0 | 0.00 | 0.00 | 0.00 | 73 | 1012.6 |
| 20260504030132 | 17 | 256 | 22.5 | 27.4 | 0.00 | 0.00 | 0.00 | 73 | 1012.6 |
| 20260504025628 | 17 | 247 | 16.1 | 25.7 | 0.00 | 0.00 | 0.00 | 74 | 1012.8 |
| 20260504025125 | 17 | 258 | 19.3 | 27.4 | 0.00 | 0.00 | 0.00 | 73 | 1012.5 |
| 20260504024622 | 17 | 249 | 17.7 | 27.4 | 0.00 | 0.00 | 0.00 | 73 | 1012.7 |
| 20260504024119 | 17 | 257 | 19.3 | 29.0 | 0.00 | 0.00 | 0.00 | 74 | 1012.7 |
| 20260504023616 | 16 | 253 | 17.7 | 32.2 | 0.00 | 0.00 | 0.00 | 74 | 1012.8 |
| 20260504023112 | 17 | 252 | 25.7 | 32.2 | 0.00 | 0.00 | 0.00 | 75 | 1012.7 |
| 20260504022608 | 17 | 243 | 19.3 | 27.4 | 0.00 | 0.00 | 0.00 | 75 | 1013.0 |
| 20260504022104 | 17 | 252 | 20.9 | 27.4 | 0.00 | 0.00 | 0.00 | 75 | 1013.0 |
| 20260504021602 | 17 | 255 | 19.3 | 32.2 | 0.00 | 0.00 | 0.00 | 74 | 1013.0 |
| 20260504021059 | 17 | 232 | 22.5 | 32.2 | 0.00 | 0.00 | 0.00 | 74 | 1013.1 |
| 20260504020555 | 17 | 259 | 20.9 | 27.4 | 0.00 | 0.00 | 0.00 | 75 | 1012.7 |
| 20260504020052 | 16 | 243 | 22.5 | 27.4 | 0.00 | 0.00 | 0.00 | 74 | 1012.8 |
| 20260504015548 | 16 | 264 | 24.1 | 32.2 | 0.00 | 0.00 | 0.00 | 75 | 1013.0 |
| 20260504015044 | 17 | 233 | 20.9 | 27.4 | 0.00 | 0.00 | 0.00 | 75 | 1012.7 |
| 20260504014541 | 17 | 254 | 20.9 | 25.7 | 0.00 | 0.00 | 0.00 | 75 | 1012.7 |
| 20260504014038 | 17 | 237 | 20.9 | 25.7 | 0.00 | 0.00 | 0.00 | 75 | 1012.7 |
| 20260504013536 | 17 | 256 | 20.9 | 32.2 | 0.00 | 0.00 | 0.00 | 75 | 1012.7 |
| 20260504013033 | 17 | 241 | 14.5 | 27.4 | 0.00 | 0.00 | 0.00 | 75 | 1012.7 |
| 20260504012530 | 16 | 246 | 25.7 | 35.4 | 0.00 | 0.00 | 0.00 | 74 | 1012.6 |
| 20260504012028 | 16 | 225 | 22.5 | 27.4 | 0.00 | 0.00 | 0.00 | 74 | 1012.7 |
| 20260504011524 | 17 | 244 | 16.1 | 29.0 | 0.00 | 0.00 | 0.00 | 74 | 1012.5 |
| 20260504011020 | 17 | 243 | 27.4 | 37.0 | 0.00 | 0.00 | 0.00 | 73 | 1012.5 |
| 20260504010516 | 17 | 252 | 24.1 | 35.4 | 0.00 | 0.00 | 0.00 | 75 | 1012.2 |
| 20260504010012 | 17 | 263 | 27.4 | 40.2 | 0.00 | 0.00 | 0.00 | 75 | 1012.4 |
| 20260504005509 | 17 | 228 | 27.4 | 32.2 | 0.00 | 0.00 | 0.00 | 74 | 1012.3 |
| 20260504005007 | 16 | 249 | 19.3 | 33.8 | 0.00 | 0.00 | 0.00 | 75 | 1012.2 |
| 20260504004504 | 16 | 247 | 19.3 | 29.0 | 0.00 | 0.00 | 0.00 | 76 | 1012.3 |
| 20260504004001 | 16 | 257 | 24.1 | 32.2 | 0.00 | 0.00 | 0.00 | 74 | 1012.1 |
| 20260504003457 | 16 | 236 | 24.1 | 37.0 | 0.00 | 0.00 | 0.00 | 75 | 1012.1 |
| 20260504002954 | 16 | 239 | 19.3 | 29.0 | 0.00 | 0.00 | 0.00 | 75 | 1012.1 |
| 20260504002451 | 16 | 278 | 22.5 | 33.8 | 0.00 | 0.00 | 0.00 | 76 | 1012.1 |
| 20260504001948 | 16 | 238 | 22.5 | 25.7 | 0.00 | 0.00 | 0.00 | 76 | 1012.0 |
| 20260504001446 | 16 | 227 | 30.6 | 37.0 | 0.00 | 0.00 | 0.00 | 76 | 1012.2 |
| 20260504000942 | 16 | 237 | 20.9 | 25.7 | 0.00 | 0.00 | 0.00 | 76 | 1011.8 |